Weather History for KJZI - April, 2014

Change the Weather History Date:

Wednesday, April 2, 2014

  Actual Average (KCHS) Record (KCHS)
Temperature  
Mean Temperature 66 °F 62 °F  
Max Temperature 80 °F 74 °F 91 °F (2012)
Min Temperature 53 °F 50 °F 36 °F (1942)
Degree Days  
Heating Degree Days 0 5  
Month to date heating degree days 10  
Since 1 July heating degree days 1885  
Cooling Degree Days 2 2  
Month to date cooling degree days 3  
Year to date cooling degree days 37  
Growing Degree Days 16 (Base 50)    
Moisture  
Dew Point 54 °F    
Average Humidity 66    
Maximum Humidity 100    
Minimum Humidity 34    
Precipitation  
Precipitation 0.00 in 0.11 in 3.57 in (2009)
Month to date precipitation 0.22  
Year to date precipitation 10.60  
Sea Level Pressure  
Sea Level Pressure 30.14 in    
Wind  
Wind Speed 7 mph (SSW)    
Max Wind Speed 14 mph    
Max Gust Speed 21 mph    
Visibility 10 miles    
Events      
T = Trace of Precipitation, MM = Missing Value Source: NWS Daily Summary

Daily Weather History Graph

Daily Weather History Graph

Search for Another Location

Airport or City:

Trip Planner

Search our weather history database for the weather conditions in past years. The results will help you decide how hot, cold, wet, or windy it might be!

Date:

Astronomy

Apr. 02, 2014 Rise Set
Actual Time 7:06 AM EDT 7:40 PM EDT
Civil Twilight 6:41 AM EDT 8:05 PM EDT
Nautical Twilight 6:12 AM EDT 8:34 PM EDT
Astronomical Twilight 5:43 AM EDT 9:04 PM EDT
Moon 8:58 AM EDT (4/2) 10:52 PM EDT (4/2)
Length of Visible Light 13h 23m
Length of Day
12h 34m
Waxing Crescent, 10% of the Moon is Illuminated
Apr 2
Waxing Crescent
Apr 7
First Quarter
Apr 15
Full
Apr 22
Last Quarter
Apr 29
New

Hourly Weather History & Observations

Time (EDT) Temp. Dew Point Humidity Pressure Visibility Wind Dir Wind Speed Gust Speed Precip Events Conditions
12:15 AM 62.6 °F 53.6 °F 72% 30.14 in 10.0 mi SW 6.9 mph - 0.00 in   Clear
12:35 AM 64.4 °F 53.6 °F 68% 30.13 in 10.0 mi SW 8.1 mph - 0.00 in   Clear
12:55 AM 64.4 °F 53.6 °F 68% 30.13 in 10.0 mi SW 8.1 mph - 0.00 in   Clear
1:15 AM 64.4 °F 53.6 °F 68% 30.13 in 10.0 mi SW 9.2 mph - 0.00 in   Clear
1:35 AM 62.6 °F 53.6 °F 72% 30.13 in 10.0 mi SW 8.1 mph - 0.00 in   Clear
1:55 AM 62.6 °F 51.8 °F 68% 30.13 in 10.0 mi SW 9.2 mph - 0.00 in   Clear
2:15 AM 62.6 °F 53.6 °F 72% 30.13 in 10.0 mi SW 9.2 mph - 0.00 in   Clear
2:35 AM 62.6 °F 53.6 °F 72% 30.12 in 10.0 mi SW 8.1 mph - 0.00 in   Clear
2:55 AM 62.6 °F 55.4 °F 77% 30.12 in 10.0 mi SW 6.9 mph - 0.00 in   Clear
3:15 AM 62.6 °F 55.4 °F 77% 30.12 in 10.0 mi SW 8.1 mph - 0.00 in   Clear
3:35 AM 62.6 °F 55.4 °F 77% 30.12 in 10.0 mi SW 6.9 mph - 0.00 in   Clear
3:55 AM 60.8 °F 55.4 °F 82% 30.12 in 10.0 mi SSW 5.8 mph - 0.00 in   Clear
4:15 AM 59.0 °F 55.4 °F 88% 30.12 in 10.0 mi Calm Calm - 0.00 in   Clear
4:35 AM 57.2 °F 55.4 °F 94% 30.12 in 10.0 mi Calm Calm - 0.00 in   Clear
4:55 AM 57.2 °F 55.4 °F 94% 30.12 in 10.0 mi Calm Calm - 0.00 in   Clear
5:15 AM 57.2 °F 55.4 °F 94% 30.12 in 10.0 mi Calm Calm - 0.00 in   Clear
5:35 AM 57.2 °F 57.2 °F 100% 30.12 in 10.0 mi SSW 4.6 mph - 0.00 in   Clear
5:55 AM 57.2 °F 55.4 °F 94% 30.12 in 10.0 mi SSW 4.6 mph - 0.00 in   Clear
6:15 AM 57.2 °F 57.2 °F 100% 30.13 in 10.0 mi SSW 3.5 mph - 0.00 in   Clear
6:35 AM 53.6 °F 53.6 °F 100% 30.13 in 5.0 mi Calm Calm - 0.00 in   Clear
6:55 AM 55.4 °F 55.4 °F 100% 30.14 in 7.0 mi Calm Calm - 0.00 in   Clear
7:15 AM 53.6 °F 53.6 °F 100% 30.14 in 7.0 mi Calm Calm - 0.00 in   Clear
7:35 AM 53.6 °F 53.6 °F 100% 30.15 in 4.0 mi Calm Calm - 0.00 in   Clear
8:55 AM 62.6 °F 55.4 °F 77% 30.17 in 10.0 mi SW 5.8 mph - 0.00 in   Clear
9:15 AM 66.2 °F 53.6 °F 64% 30.17 in 10.0 mi West 4.6 mph - 0.00 in   Clear
9:35 AM 68.0 °F 51.8 °F 56% 30.18 in 10.0 mi West 5.8 mph - 0.00 in   Clear
9:55 AM 69.8 °F 51.8 °F 53% 30.18 in 10.0 mi WSW 3.5 mph - 0.00 in   Clear
10:15 AM 71.6 °F 51.8 °F 50% 30.18 in 10.0 mi West 5.8 mph - 0.00 in   Clear
10:35 AM 73.4 °F 51.8 °F 47% 30.18 in 10.0 mi WSW 5.8 mph - 0.00 in   Clear
10:55 AM 75.2 °F 53.6 °F 47% 30.18 in 10.0 mi SW 4.6 mph - 0.00 in   Clear
11:15 AM 75.2 °F 51.8 °F 44% 30.18 in 10.0 mi West 3.5 mph - 0.00 in   Clear
11:35 AM 78.8 °F 51.8 °F 39% 30.18 in 10.0 mi Calm Calm - 0.00 in   Clear
12:15 PM 80.6 °F 50.0 °F 34% 30.17 in 10.0 mi SW 10.4 mph 19.6 mph 0.00 in   Clear
12:55 PM 75.2 °F 59.0 °F 57% 30.17 in 10.0 mi South 10.4 mph - 0.00 in   Partly Cloudy
1:15 PM 77.0 °F 60.8 °F 57% 30.16 in 10.0 mi SSE 10.4 mph - 0.00 in   Clear
1:35 PM 77.0 °F 59.0 °F 54% 30.16 in 10.0 mi South 11.5 mph - 0.00 in   Partly Cloudy
1:55 PM 77.0 °F 60.8 °F 57% 30.16 in 10.0 mi South 11.5 mph - 0.00 in   Clear
2:15 PM 75.2 °F 60.8 °F 61% 30.15 in 10.0 mi South 11.5 mph - 0.00 in   Partly Cloudy
2:35 PM 77.0 °F 57.2 °F 50% 30.15 in 10.0 mi South 11.5 mph - 0.00 in   Partly Cloudy
2:55 PM 78.8 °F 55.4 °F 44% 30.14 in 10.0 mi SSW 11.5 mph - 0.00 in   Partly Cloudy
3:15 PM 78.8 °F 55.4 °F 44% 30.14 in 10.0 mi SSW 10.4 mph - 0.00 in   Clear
3:35 PM 78.8 °F 53.6 °F 42% 30.13 in 10.0 mi South 13.8 mph - 0.00 in   Clear
3:55 PM 78.8 °F 53.6 °F 42% 30.13 in 10.0 mi South 13.8 mph - 0.00 in   Clear
4:15 PM 75.2 °F 53.6 °F 47% 30.13 in 10.0 mi SSW 9.2 mph - 0.00 in   Clear
4:35 PM 75.2 °F 53.6 °F 47% 30.12 in 10.0 mi SSW 12.7 mph - 0.00 in   Clear
5:15 PM 75.2 °F 51.8 °F 44% 30.11 in 10.0 mi SSW 12.7 mph - 0.00 in   Clear
5:35 PM 73.4 °F 51.8 °F 47% 30.11 in 10.0 mi SSW 13.8 mph 20.7 mph 0.00 in   Clear
5:55 PM 73.4 °F 51.8 °F 47% 30.10 in 10.0 mi South 13.8 mph - 0.00 in   Clear
6:15 PM 73.4 °F 51.8 °F 47% 30.10 in 10.0 mi SSW 12.7 mph 18.4 mph 0.00 in   Clear
6:35 PM 71.6 °F 51.8 °F 50% 30.11 in 10.0 mi SSW 11.5 mph 17.3 mph 0.00 in   Clear
6:55 PM 69.8 °F 51.8 °F 53% 30.11 in 10.0 mi SSW 8.1 mph - 0.00 in   Clear
7:15 PM 69.8 °F 50.0 °F 49% 30.11 in 10.0 mi SSW 6.9 mph - 0.00 in   Clear
7:35 PM 68.0 °F 50.0 °F 52% 30.11 in 10.0 mi SSW 6.9 mph - 0.00 in   Clear
7:55 PM 66.2 °F 51.8 °F 60% 30.11 in 10.0 mi SSW 9.2 mph - 0.00 in   Clear
8:15 PM 66.2 °F 51.8 °F 60% 30.11 in 10.0 mi SSW 10.4 mph - 0.00 in   Clear
8:35 PM 64.4 °F 53.6 °F 68% 30.11 in 10.0 mi SSW 9.2 mph - 0.00 in   Clear
9:15 PM 64.4 °F 55.4 °F 73% 30.12 in 10.0 mi SSW 8.1 mph - 0.00 in   Clear
9:35 PM 64.4 °F 55.4 °F 73% 30.13 in 10.0 mi SSW 8.1 mph - 0.00 in   Clear
9:55 PM 64.4 °F 55.4 °F 73% 30.13 in 10.0 mi SSW 8.1 mph - 0.00 in   Clear
10:15 PM 64.4 °F 55.4 °F 73% 30.14 in 10.0 mi SW 8.1 mph - 0.00 in   Clear
10:35 PM 64.4 °F 55.4 °F 73% 30.14 in 10.0 mi SW 5.8 mph - 0.00 in   Clear
11:15 PM 64.4 °F 55.4 °F 73% 30.14 in 10.0 mi SW 8.1 mph - 0.00 in   Clear
11:35 PM 64.4 °F 55.4 °F 73% 30.14 in 10.0 mi SW 11.5 mph - 0.00 in   Clear
11:55 PM 66.2 °F 57.2 °F 73% 30.14 in 10.0 mi SW 11.5 mph 16.1 mph 0.00 in   Clear